When you browse on this site, cookies collect data to enhance your experience and personalize the content and advertising you see.
Visit our Privacy Policy to learn more. By continuing to use the site, you agree to this use of cookies and data.
  • In Hungary
  • List of Countries
  • For 7 days
  • Water Temperature
  • Satellite Maps
  • Weather Map
  • News
  • Weather Widgets
  • user-avatar
    Login

    Hourly Weather Apostolovo

    Today, 23 April, Tuesday

    Time Temperature Precipitation Wind Pressure Humidity
    00:00 +12°C° 0 mm 1 mps 761 mmHg 51%
    01:00 +11°C° 0 mm 1 mps 761 mmHg 53%
    02:00 +11°C° 0 mm 1 mps 761 mmHg 54%
    03:00 +11°C° 0 mm 1 mps 762 mmHg 55%
    04:00 +11°C° 0 mm 1 mps 762 mmHg 56%
    05:00 +11°C° 0 mm 1 mps 762 mmHg 57%
    06:00 +12°C° 0 mm 1 mps 762 mmHg 52%
    07:00 +14°C° 0 mm 2 mps 762 mmHg 48%
    08:00 +15°C° 0 mm 2 mps 763 mmHg 44%
    09:00 +16°C° 0 mm 2 mps 763 mmHg 39%
    10:00 +17°C° 0 mm 3 mps 763 mmHg 34%
    11:00 +18°C° 0 mm 3 mps 763 mmHg 30%
    12:00 +18°C° 0 mm 3 mps 763 mmHg 29%
    13:00 +18°C° 0 mm 3 mps 763 mmHg 29%
    14:00 +18°C° 0 mm 3 mps 763 mmHg 29%
    15:00 +18°C° 0 mm 2 mps 763 mmHg 30%
    16:00 +18°C° 0 mm 2 mps 762 mmHg 32%
    17:00 +18°C° 0 mm 2 mps 762 mmHg 33%
    18:00 +16°C° 0 mm 2 mps 762 mmHg 37%
    19:00 +15°C° 0 mm 2 mps 763 mmHg 40%
    20:00 +13°C° 0 mm 1 mps 763 mmHg 44%
    21:00 +13°C° 0 mm 1 mps 763 mmHg 47%
    22:00 +12°C° 0 mm 2 mps 763 mmHg 49%
    23:00 +10°C° 0 mm 2 mps 763 mmHg 52%

    Tomorrow, 24 April, Wednesday

    Time Temperature Precipitation Wind Pressure Humidity
    00:00 +10°C° 0 mm 2 mps 763 mmHg 53%
    01:00 +9°C° 0 mm 2 mps 764 mmHg 53%
    02:00 +10°C° 0 mm 1 mps 764 mmHg 54%
    03:00 +10°C° 0 mm 1 mps 764 mmHg 55%
    04:00 +9°C° 0 mm 1 mps 764 mmHg 57%
    05:00 +9°C° 0 mm 1 mps 763 mmHg 58%
    06:00 +11°C° 0 mm 1 mps 764 mmHg 55%
    07:00 +13°C° 0 mm 2 mps 764 mmHg 51%
    08:00 +15°C° 0 mm 2 mps 764 mmHg 48%
    09:00 +16°C° 0 mm 2 mps 764 mmHg 43%
    10:00 +18°C° 0 mm 2 mps 764 mmHg 38%
    11:00 +19°C° 0 mm 3 mps 764 mmHg 33%
    12:00 +19°C° 0 mm 3 mps 763 mmHg 32%
    13:00 +20°C° 0 mm 3 mps 763 mmHg 31%
    14:00 +20°C° 0 mm 2 mps 763 mmHg 31%
    15:00 +20°C° 0 mm 2 mps 763 mmHg 32%
    16:00 +20°C° 0 mm 2 mps 762 mmHg 33%
    17:00 +20°C° 0 mm 2 mps 762 mmHg 34%
    18:00 +19°C° 0 mm 1 mps 762 mmHg 37%
    19:00 +16°C° 0 mm 1 mps 762 mmHg 41%
    20:00 +15°C° 0 mm 1 mps 762 mmHg 44%
    21:00 +14°C° 0 mm 1 mps 762 mmHg 47%
    22:00 +13°C° 0 mm 2 mps 763 mmHg 51%
    23:00 +12°C° 0 mm 2 mps 763 mmHg 54%

    Day after tomorrow, 25 April, Thursday

    Time Temperature Precipitation Wind Pressure Humidity
    00:00 +12°C° 0 mm 2 mps 763 mmHg 55%
    01:00 +12°C° 0 mm 2 mps 763 mmHg 56%
    02:00 +11°C° 0 mm 1 mps 763 mmHg 57%
    03:00 +11°C° 0 mm 1 mps 763 mmHg 58%
    04:00 +11°C° 0 mm 1 mps 763 mmHg 59%
    05:00 +11°C° 0 mm 1 mps 763 mmHg 61%
    06:00 +13°C° 0 mm 1 mps 763 mmHg 56%
    07:00 +15°C° 0 mm 1 mps 763 mmHg 52%
    08:00 +17°C° 0 mm 2 mps 763 mmHg 47%
    09:00 +18°C° 0 mm 2 mps 763 mmHg 44%
    10:00 +19°C° 0 mm 2 mps 763 mmHg 40%
    11:00 +20°C° 0 mm 2 mps 763 mmHg 36%
    12:00 +21°C° 0 mm 2 mps 762 mmHg 36%
    13:00 +22°C° 0 mm 1 mps 762 mmHg 35%
    14:00 +22°C° 0 mm 1 mps 762 mmHg 35%
    15:00 +22°C° 0 mm 1 mps 762 mmHg 37%
    16:00 +20°C° 0 mm 0 mps 761 mmHg 39%
    17:00 +20°C° 0 mm 0 mps 761 mmHg 41%
    18:00 +18°C° 0 mm 0 mps 761 mmHg 44%
    19:00 +17°C° 0 mm 0 mps 761 mmHg 46%
    20:00 +16°C° 0 mm 1 mps 761 mmHg 48%
    21:00 +16°C° 0 mm 1 mps 761 mmHg 50%
    22:00 +15°C° 0 mm 1 mps 761 mmHg 52%
    23:00 +15°C° 0 mm 1 mps 761 mmHg 54%

    26 April, Friday

    Time Temperature Precipitation Wind Pressure Humidity
    00:00 +14°C° 0 mm 1 mps 761 mmHg 56%
    01:00 +14°C° 0 mm 1 mps 761 mmHg 58%
    02:00 +13°C° 0 mm 2 mps 760 mmHg 60%
    03:00 +13°C° 0 mm 2 mps 760 mmHg 61%
    04:00 +13°C° 0 mm 2 mps 760 mmHg 62%
    05:00 +13°C° 0 mm 2 mps 760 mmHg 64%
    06:00 +14°C° 0 mm 2 mps 760 mmHg 59%
    07:00 +16°C° 0 mm 2 mps 760 mmHg 55%
    08:00 +18°C° 0 mm 2 mps 760 mmHg 50%
    09:00 +20°C° 0 mm 2 mps 760 mmHg 47%
    10:00 +21°C° 0 mm 2 mps 760 mmHg 43%
    11:00 +23°C° 0 mm 2 mps 760 mmHg 39%
    12:00 +23°C° 0 mm 2 mps 759 mmHg 40%
    13:00 +23°C° 0 mm 2 mps 759 mmHg 41%
    14:00 +23°C° 0 mm 2 mps 759 mmHg 41%
    15:00 +23°C° 0 mm 1 mps 758 mmHg 44%
    16:00 +22°C° 0 mm 1 mps 758 mmHg 46%
    17:00 +22°C° 0 mm 1 mps 758 mmHg 48%
    18:00 +21°C° 0.1 mm 1 mps 758 mmHg 52%
    19:00 +19°C° 0.1 mm 2 mps 758 mmHg 55%
    20:00 +18°C° 0.1 mm 3 mps 758 mmHg 59%
    21:00 +17°C° 0.2 mm 2 mps 758 mmHg 61%
    22:00 +17°C° 0.2 mm 2 mps 758 mmHg 64%
    23:00 +17°C° 0.2 mm 2 mps 758 mmHg 66%

    27 April, Saturday

    Time Temperature Precipitation Wind Pressure Humidity
    00:00 +16°C° 0 mm 2 mps 758 mmHg 66%
    01:00 +15°C° 0 mm 2 mps 758 mmHg 66%
    02:00 +14°C° 0 mm 2 mps 758 mmHg 67%
    03:00 +14°C° 0 mm 1 mps 758 mmHg 67%
    04:00 +13°C° 0 mm 1 mps 757 mmHg 67%
    05:00 +13°C° 0 mm 1 mps 757 mmHg 67%
    06:00 +15°C° 0 mm 1 mps 757 mmHg 62%
    07:00 +16°C° 0 mm 1 mps 757 mmHg 56%
    08:00 +18°C° 0 mm 2 mps 757 mmHg 51%
    09:00 +19°C° 0 mm 2 mps 757 mmHg 47%
    10:00 +21°C° 0 mm 2 mps 757 mmHg 44%
    11:00 +22°C° 0 mm 3 mps 757 mmHg 40%
    12:00 +22°C° 0 mm 3 mps 756 mmHg 41%
    13:00 +22°C° 0 mm 3 mps 756 mmHg 41%
    14:00 +22°C° 0 mm 3 mps 756 mmHg 41%
    15:00 +22°C° 0 mm 3 mps 756 mmHg 43%
    16:00 +21°C° 0 mm 3 mps 755 mmHg 45%
    17:00 +21°C° 0 mm 3 mps 755 mmHg 47%
    18:00 +20°C° 0 mm 2 mps 755 mmHg 49%
    19:00 +19°C° 0 mm 2 mps 755 mmHg 50%
    20:00 +19°C° 0 mm 2 mps 755 mmHg 51%
    21:00 +18°C° 0 mm 2 mps 755 mmHg 54%
    22:00 +17°C° 0 mm 2 mps 755 mmHg 57%
    23:00 +17°C° 0 mm 2 mps 755 mmHg 59%

    28 April, Sunday

    Time Temperature Precipitation Wind Pressure Humidity
    00:00 +16°C° 0 mm 1 mps 755 mmHg 61%
    01:00 +15°C° 0 mm 1 mps 755 mmHg 63%
    02:00 +14°C° 0 mm 1 mps 755 mmHg 65%
    03:00 +14°C° 0 mm 1 mps 755 mmHg 66%
    04:00 +13°C° 0 mm 1 mps 754 mmHg 66%
    05:00 +12°C° 0 mm 0 mps 754 mmHg 67%
    06:00 +15°C° 0 mm 1 mps 754 mmHg 62%
    07:00 +17°C° 0 mm 2 mps 754 mmHg 57%
    08:00 +19°C° 0 mm 2 mps 754 mmHg 52%
    09:00 +20°C° 0 mm 3 mps 754 mmHg 49%
    10:00 +21°C° 0 mm 3 mps 754 mmHg 46%
    11:00 +23°C° 0 mm 4 mps 754 mmHg 44%
    12:00 +23°C° 0 mm 4 mps 754 mmHg 43%
    13:00 +24°C° 0 mm 3 mps 754 mmHg 42%
    14:00 +24°C° 0 mm 3 mps 753 mmHg 41%
    15:00 +22°C° 0 mm 3 mps 753 mmHg 44%
    16:00 +22°C° 0 mm 3 mps 753 mmHg 47%
    17:00 +21°C° 0 mm 2 mps 753 mmHg 50%
    18:00 +20°C° 0 mm 2 mps 753 mmHg 52%
    19:00 +19°C° 0 mm 3 mps 753 mmHg 54%
    20:00 +18°C° 0 mm 3 mps 754 mmHg 56%
    21:00 +17°C° 0 mm 3 mps 754 mmHg 60%
    22:00 +16°C° 0 mm 3 mps 754 mmHg 63%
    23:00 +15°C° 0 mm 2 mps 754 mmHg 66%
    Show more